West Columbia, WV

5:27 PM EST on December 06, 2016 (GMT -0500)
Point Pleasant

Weather History for K3I2 - May, 2013

Change the Weather History Date:

Tuesday, May 21, 2013

  Actual Average (KHTS) Record (KHTS)
Temperature  
Mean Temperature 76 °F 65 °F  
Max Temperature 89 °F 76 °F 95 °F (1934)
Min Temperature 62 °F 54 °F 35 °F (1954)
Degree Days  
Heating Degree Days 0 3  
Month to date heating degree days 91  
Since 1 July heating degree days 4479  
Cooling Degree Days 10 3  
Month to date cooling degree days 43  
Year to date cooling degree days 75  
Growing Degree Days 26 (Base 50)    
Moisture  
Dew Point 66 °F    
Average Humidity 74    
Maximum Humidity 100    
Minimum Humidity 49    
Precipitation  
Precipitation 0.00 in 0.16 in 1.53 in (1933)
Month to date precipitation 3.12  
Year to date precipitation 16.50  
Snow  
Snow 0.00 in - - ()
Month to date snowfall  
Since 1 September snowfall  
Snow Depth -    
Sea Level Pressure  
Sea Level Pressure 29.94 in    
Wind  
Wind Speed 3 mph (SSW)    
Max Wind Speed 10 mph    
Max Gust Speed 16 mph    
Visibility 8 miles    
Events Rain    
T = Trace of Precipitation, MM = Missing Value Source: NWS Daily Summary

Daily Weather History Graph

Daily Weather History Graph

Search for Another Location

Airport or City:

Trip Planner

Search our weather history database for the weather conditions in past years. The results will help you decide how hot, cold, wet, or windy it might be!

Date:

Astronomy

May. 21, 2013 Rise Set
Actual Time 6:10 AM EDT 8:39 PM EDT
Civil Twilight 5:40 AM EDT 9:10 PM EDT
Nautical Twilight 5:02 AM EDT 9:48 PM EDT
Astronomical Twilight 4:20 AM EDT 10:30 PM EDT
Moon 4:53 PM EDT (5/21) 3:35 AM EDT (5/21)
Length of Visible Light 15h 29m
Length of Day
14h 28m
Waxing Gibbous, 84% of the Moon is Illuminated
May 21
Waxing Gibbous
May 25
Full
May 31
Last Quarter
Jun 8
New
Jun 16
First Quarter

Hourly Weather History & Observations

Time (EDT) Temp. Heat Index Dew Point Humidity Pressure Visibility Wind Dir Wind Speed Gust Speed Precip Events Conditions
12:15 AM 68.0 °F - 66.2 °F 94% 29.97 in 5.0 mi Calm Calm - N/A   Clear
12:35 AM 68.0 °F - 64.4 °F 88% 29.96 in 7.0 mi Calm Calm - N/A   Clear
12:55 AM 68.0 °F - 64.4 °F 88% 29.96 in 7.0 mi Calm Calm - N/A   Clear
1:15 AM 66.2 °F - 64.4 °F 94% 29.96 in 7.0 mi Calm Calm - N/A   Clear
1:35 AM 66.2 °F - 64.4 °F 94% 29.96 in 7.0 mi Calm Calm - N/A   Clear
1:55 AM 66.2 °F - 64.4 °F 94% 29.96 in 5.0 mi Calm Calm - N/A   Clear
2:15 AM 66.2 °F - 64.4 °F 94% 29.97 in 7.0 mi Calm Calm - N/A   Clear
2:35 AM 66.2 °F - 64.4 °F 94% 29.97 in 5.0 mi Calm Calm - N/A   Clear
2:55 AM 64.4 °F - 62.6 °F 94% 29.97 in 5.0 mi Calm Calm - N/A   Clear
3:15 AM 64.4 °F - 64.4 °F 100% 29.97 in 4.0 mi Calm Calm - N/A   Clear
3:35 AM 64.4 °F - 64.4 °F 100% 29.97 in 5.0 mi Calm Calm - N/A   Clear
3:55 AM 64.4 °F - 62.6 °F 94% 29.96 in 7.0 mi Calm Calm - N/A   Clear
4:15 AM 64.4 °F - 62.6 °F 94% 29.97 in 5.0 mi Calm Calm - N/A   Clear
4:35 AM 64.4 °F - 62.6 °F 94% 29.97 in 7.0 mi Calm Calm - N/A   Scattered Clouds
4:55 AM 64.4 °F - 62.6 °F 94% 29.97 in 5.0 mi Calm Calm - N/A   Scattered Clouds
5:15 AM 64.4 °F - 62.6 °F 94% 29.97 in 5.0 mi Calm Calm - N/A   Clear
5:35 AM 62.6 °F - 60.8 °F 94% 29.97 in 5.0 mi Calm Calm - N/A   Clear
5:55 AM 62.6 °F - 62.6 °F 100% 29.98 in 7.0 mi Calm Calm - N/A   Clear
6:15 AM 62.6 °F - 62.6 °F 100% 29.98 in 1.8 mi Calm Calm - N/A   Mist
6:35 AM 62.6 °F - 62.6 °F 100% 29.98 in 4.0 mi Calm Calm - N/A   Clear
6:55 AM 64.4 °F - 62.6 °F 94% 29.99 in 4.0 mi Calm Calm - N/A   Clear
7:15 AM 64.4 °F - 64.4 °F 100% 29.99 in 7.0 mi Calm Calm - N/A   Clear
7:35 AM 68.0 °F - 66.2 °F 94% 29.98 in 7.0 mi Calm Calm - N/A   Clear
7:55 AM 69.8 °F - 68.0 °F 94% 30.00 in 7.0 mi SW 3.5 mph - N/A   Clear
8:15 AM 71.6 °F - 68.0 °F 88% 30.00 in 7.0 mi South 3.5 mph - N/A   Scattered Clouds
8:35 AM 71.6 °F - 68.0 °F 88% 30.00 in 7.0 mi Calm Calm - N/A   Scattered Clouds
8:55 AM 73.4 °F - 68.0 °F 83% 30.00 in 7.0 mi South 4.6 mph - N/A   Clear
9:15 AM 75.2 °F - 68.0 °F 78% 30.00 in 10.0 mi South 6.9 mph - N/A   Clear
9:35 AM 77.0 °F - 68.0 °F 74% 30.00 in 10.0 mi SSW 5.8 mph - N/A   Clear
9:55 AM 77.0 °F - 68.0 °F 74% 30.01 in 10.0 mi SW 8.1 mph - N/A   Clear
10:15 AM 78.8 °F - 68.0 °F 69% 30.01 in 10.0 mi SW 10.4 mph 16.1 mph N/A   Clear
10:35 AM 78.8 °F - 68.0 °F 69% 30.00 in 10.0 mi SW 9.2 mph - N/A   Clear
10:55 AM 78.8 °F - 68.0 °F 69% 30.00 in 10.0 mi SW 5.8 mph - N/A   Clear
11:15 AM 80.6 °F 83.2 °F 68.0 °F 65% 30.00 in 10.0 mi SW 6.9 mph - N/A   Scattered Clouds
11:35 AM 80.6 °F 83.2 °F 68.0 °F 65% 30.00 in 10.0 mi SSW 8.1 mph - N/A   Scattered Clouds
11:55 AM 82.4 °F 85.4 °F 68.0 °F 62% 29.99 in 10.0 mi SSW 6.9 mph - N/A   Clear
12:15 PM 82.4 °F 85.4 °F 68.0 °F 62% 29.98 in 10.0 mi SSW 6.9 mph - N/A   Clear
12:35 PM 84.2 °F 88.4 °F 69.8 °F 62% 29.98 in 10.0 mi SSW 6.9 mph - N/A   Clear
12:55 PM 86.0 °F 89.4 °F 68.0 °F 55% 29.97 in 10.0 mi SW 8.1 mph - N/A   Clear
1:15 PM 87.8 °F 91.4 °F 68.0 °F 52% 29.95 in 10.0 mi SW 8.1 mph - N/A   Clear
1:35 PM 87.8 °F 91.4 °F 68.0 °F 52% 29.94 in 10.0 mi South 4.6 mph - N/A   Scattered Clouds
1:55 PM 86.0 °F 89.4 °F 68.0 °F 55% 29.94 in 10.0 mi SSE 4.6 mph - N/A   Clear
2:15 PM 87.8 °F 91.4 °F 68.0 °F 52% 29.93 in 10.0 mi South 8.1 mph - N/A   Scattered Clouds
2:35 PM 87.8 °F 91.4 °F 68.0 °F 52% 29.93 in 10.0 mi SSW 4.6 mph - N/A   Scattered Clouds
2:55 PM 87.8 °F 91.4 °F 68.0 °F 52% 29.91 in 10.0 mi South 8.1 mph - N/A   Scattered Clouds
3:15 PM 87.8 °F 91.4 °F 68.0 °F 52% 29.90 in 10.0 mi South 4.6 mph - N/A   Clear
3:35 PM 89.6 °F 93.4 °F 68.0 °F 49% 29.90 in 10.0 mi SSW 6.9 mph - N/A   Clear
3:55 PM 89.6 °F 93.4 °F 68.0 °F 49% 29.90 in 10.0 mi SW 6.9 mph - N/A   Clear
4:15 PM 89.6 °F 93.4 °F 68.0 °F 49% 29.89 in 10.0 mi SW 10.4 mph - N/A   Scattered Clouds
4:35 PM 87.8 °F 91.4 °F 68.0 °F 52% 29.89 in 10.0 mi SSW 9.2 mph - N/A   Scattered Clouds
4:55 PM 89.6 °F 93.4 °F 68.0 °F 49% 29.87 in 10.0 mi SW 8.1 mph - N/A   Scattered Clouds
5:15 PM 87.8 °F 91.4 °F 68.0 °F 52% 29.87 in 10.0 mi SW 6.9 mph - N/A   Scattered Clouds
5:35 PM 89.6 °F 93.4 °F 68.0 °F 49% 29.88 in 10.0 mi WSW 6.9 mph - N/A   Scattered Clouds
5:55 PM 87.8 °F 90.4 °F 66.2 °F 49% 29.88 in 10.0 mi WSW 9.2 mph - N/A   Scattered Clouds
6:15 PM 87.8 °F 90.4 °F 66.2 °F 49% 29.87 in 10.0 mi WSW 6.9 mph - N/A   Clear
6:35 PM 87.8 °F 91.4 °F 68.0 °F 52% 29.87 in 10.0 mi SW 6.9 mph - N/A   Clear
6:55 PM 86.0 °F 88.2 °F 66.2 °F 51% 29.87 in 10.0 mi SW 6.9 mph - N/A   Clear
7:15 PM 86.0 °F 88.2 °F 66.2 °F 51% 29.87 in 10.0 mi SW 4.6 mph - N/A   Scattered Clouds
7:35 PM 82.4 °F 85.4 °F 68.0 °F 62% 29.86 in 10.0 mi SW 4.6 mph - N/A   Scattered Clouds
7:55 PM 82.4 °F 85.4 °F 68.0 °F 62% 29.86 in 10.0 mi Calm Calm - N/A   Clear
8:15 PM 80.6 °F 83.2 °F 68.0 °F 65% 29.87 in 10.0 mi Calm Calm - N/A   Clear
8:35 PM 80.6 °F 82.7 °F 66.2 °F 61% 29.87 in 10.0 mi SSW 9.2 mph 16.1 mph N/A   Scattered Clouds
8:55 PM 77.0 °F - 62.6 °F 61% 29.87 in 10.0 mi SE 5.8 mph - N/A   Clear
9:15 PM 73.4 °F - 64.4 °F 73% 29.87 in 5.0 mi Calm Calm - N/A Rain Light Rain
9:35 PM 71.6 °F - 64.4 °F 78% 29.90 in 10.0 mi SSE 3.5 mph - N/A   Scattered Clouds
9:55 PM 71.6 °F - 64.4 °F 78% 29.92 in 10.0 mi SSW 8.1 mph - N/A   Clear
10:15 PM 71.6 °F - 66.2 °F 83% 29.93 in 10.0 mi South 3.5 mph - N/A   Clear
10:35 PM 71.6 °F - 66.2 °F 83% 29.94 in 10.0 mi South 4.6 mph - N/A   Clear
10:55 PM 71.6 °F - 64.4 °F 78% 29.94 in 10.0 mi Calm Calm - N/A   Clear
11:15 PM 69.8 °F - 64.4 °F 83% 29.93 in 10.0 mi South 3.5 mph - N/A   Clear
11:35 PM 69.8 °F - 64.4 °F 83% 29.93 in 10.0 mi Calm Calm - N/A   Clear
11:55 PM 68.0 °F - 64.4 °F 88% 29.93 in 10.0 mi Calm Calm - N/A   Clear